Total_Precipitation_Accumulation
1.09 1.35 1.57 1.79 2.25 2.85 3.37 3.52 3.26 2.56 2.08 1.77 1.62 1.41 1.22 1.05 0.95 0.87 0.78 0.69 0.69 0.64 0.64 0.61 0.63 0.69 0.69 0.68 0.83 0.95 0.96 0.79 0.95 1.02 0.80 0.65 0.58 0.57 0.56 0.51 0.50 0.51 0.55
0.97 1.39 1.85 2.22 2.59 2.83 2.95 2.78 2.38 1.75 1.35 1.12 0.97 0.78 0.64 0.57 0.55 0.52 0.52 0.53 0.54 0.54 0.53 0.50 0.48 0.49 0.52 0.54 0.60 0.71 0.71 0.63 0.74 0.83 0.76 0.56 0.50 0.44 0.34 0.37 0.38 0.37 0.48
1.21 1.84 2.40 2.72 2.70 2.52 2.12 1.64 1.26 0.94 0.81 0.66 0.54 0.40 0.33 0.29 0.28 0.29 0.31 0.33 0.33 0.33 0.33 0.32 0.32 0.34 0.39 0.42 0.49 0.57 0.59 0.54 0.52 0.63 0.73 0.56 0.43 0.38 0.34 0.34 0.36 0.43 0.47
1.36 1.98 2.36 2.30 2.15 1.81 1.32 0.99 0.80 0.60 0.50 0.42 0.40 0.34 0.27 0.25 0.25 0.23 0.24 0.24 0.22 0.23 0.23 0.21 0.21 0.22 0.25 0.33 0.35 0.44 0.55 0.54 0.43 0.46 0.55 0.55 0.51 0.44 0.38 0.37 0.35 0.40 0.42
0.99 1.17 1.27 1.19 1.04 0.84 0.82 0.78 0.69 0.62 0.52 0.44 0.41 0.35 0.26 0.24 0.23 0.23 0.24 0.26 0.26 0.24 0.23 0.22 0.21 0.21 0.21 0.24 0.28 0.36 0.46 0.52 0.47 0.44 0.49 0.58 0.57 0.49 0.44 0.38 0.38 0.43 0.37
0.56 0.53 0.49 0.44 0.43 0.40 0.46 0.48 0.46 0.52 0.53 0.48 0.41 0.36 0.31 0.26 0.23 0.22 0.21 0.21 0.23 0.25 0.25 0.25 0.26 0.26 0.26 0.26 0.26 0.28 0.33 0.45 0.53 0.53 0.51 0.55 0.56 0.46 0.43 0.35 0.32 0.40 0.39
0.38 0.41 0.40 0.37 0.33 0.28 0.27 0.29 0.27 0.31 0.33 0.33 0.30 0.30 0.30 0.26 0.22 0.19 0.16 0.17 0.17 0.20 0.22 0.23 0.25 0.28 0.30 0.31 0.28 0.29 0.28 0.36 0.46 0.49 0.52 0.52 0.51 0.54 0.55 0.51 0.41 0.43 0.47
0.22 0.26 0.26 0.27 0.24 0.19 0.18 0.16 0.16 0.18 0.18 0.16 0.16 0.18 0.20 0.19 0.19 0.23 0.18 0.17 0.19 0.20 0.20 0.20 0.19 0.22 0.27 0.32 0.34 0.32 0.33 0.36 0.38 0.39 0.52 0.57 0.51 0.61 0.65 0.68 0.72 0.63 0.63
0.10 0.10 0.11 0.13 0.14 0.13 0.13 0.12 0.13 0.12 0.11 0.09 0.10 0.11 0.13 0.15 0.17 0.19 0.18 0.17 0.22 0.21 0.20 0.20 0.20 0.22 0.24 0.28 0.32 0.32 0.34 0.38 0.39 0.41 0.51 0.59 0.65 0.69 0.66 0.76 0.84 0.85 0.78
0.06 0.06 0.06 0.06 0.06 0.07 0.09 0.09 0.09 0.11 0.09 0.07 0.05 0.04 0.06 0.09 0.12 0.12 0.14 0.15 0.16 0.19 0.20 0.20 0.19 0.20 0.21 0.23 0.27 0.29 0.35 0.42 0.47 0.54 0.59 0.61 0.67 0.76 0.69 0.75 0.82 0.84 0.89
0.03 0.03 0.03 0.03 0.03 0.04 0.05 0.06 0.06 0.09 0.08 0.06 0.04 0.04 0.05 0.06 0.09 0.12 0.14 0.15 0.14 0.13 0.14 0.16 0.18 0.19 0.21 0.25 0.31 0.34 0.38 0.48 0.60 0.69 0.73 0.75 0.77 0.81 0.79 0.85 0.86 0.81 0.89
0.01 0.01 0.01 0.01 0.02 0.03 0.03 0.04 0.05 0.07 0.06 0.04 0.04 0.04 0.04 0.04 0.05 0.08 0.11 0.12 0.13 0.13 0.13 0.13 0.14 0.14 0.15 0.21 0.31 0.42 0.44 0.47 0.55 0.77 0.99 1.01 1.01 0.93 0.85 0.93 0.91 0.87 1.01
0.00 0.00 0.01 0.01 0.01 0.02 0.02 0.03 0.03 0.04 0.03 0.02 0.03 0.03 0.03 0.03 0.04 0.05 0.07 0.09 0.11 0.13 0.13 0.14 0.13 0.13 0.12 0.14 0.22 0.35 0.40 0.49 0.63 0.79 0.92 1.04 1.16 1.06 0.96 0.94 0.93 0.96 1.05
0.00 0.00 0.01 0.01 0.01 0.01 0.01 0.01 0.01 0.02 0.02 0.02 0.03 0.04 0.04 0.05 0.05 0.04 0.04 0.05 0.08 0.11 0.13 0.14 0.14 0.14 0.12 0.12 0.18 0.26 0.34 0.47 0.65 0.72 0.67 0.78 1.03 1.14 1.06 0.95 0.90 0.94 0.99
0.01 0.01 0.01 0.01 0.02 0.02 0.02 0.03 0.03 0.04 0.05 0.06 0.08 0.08 0.08 0.09 0.09 0.09 0.09 0.08 0.09 0.10 0.13 0.16 0.16 0.16 0.13 0.11 0.18 0.27 0.23 0.29 0.37 0.42 0.41 0.47 0.65 0.92 1.09 1.03 0.93 0.93 0.90
0.04 0.05 0.06 0.06 0.06 0.06 0.05 0.05 0.06 0.06 0.07 0.09 0.09 0.09 0.12 0.11 0.11 0.11 0.11 0.11 0.12 0.15 0.19 0.22 0.23 0.21 0.15 0.12 0.13 0.16 0.18 0.21 0.24 0.27 0.31 0.32 0.33 0.44 0.66 0.87 0.98 1.02 0.96
0.12 0.09 0.08 0.06 0.05 0.04 0.04 0.04 0.04 0.06 0.08 0.10 0.11 0.14 0.17 0.18 0.17 0.16 0.15 0.15 0.17 0.21 0.25 0.29 0.32 0.32 0.30 0.20 0.12 0.09 0.13 0.17 0.21 0.26 0.30 0.24 0.20 0.29 0.38 0.51 0.64 0.78 0.84
0.09 0.07 0.06 0.05 0.05 0.05 0.07 0.07 0.09 0.11 0.14 0.16 0.17 0.22 0.26 0.27 0.27 0.27 0.24 0.26 0.29 0.30 0.32 0.34 0.37 0.42 0.39 0.27 0.18 0.14 0.12 0.17 0.22 0.28 0.31 0.31 0.29 0.31 0.38 0.45 0.47 0.52 0.58
0.07 0.08 0.09 0.10 0.09 0.09 0.12 0.14 0.15 0.19 0.23 0.25 0.27 0.32 0.39 0.45 0.44 0.41 0.41 0.42 0.42 0.39 0.38 0.38 0.43 0.47 0.50 0.38 0.25 0.21 0.21 0.26 0.27 0.29 0.31 0.35 0.35 0.32 0.29 0.37 0.40 0.42 0.45
0.07 0.08 0.08 0.08 0.11 0.13 0.13 0.14 0.18 0.23 0.31 0.35 0.34 0.37 0.46 0.56 0.58 0.55 0.55 0.57 0.57 0.53 0.49 0.46 0.49 0.54 0.61 0.52 0.31 0.26 0.30 0.35 0.37 0.44 0.46 0.38 0.34 0.32 0.24 0.30 0.38 0.38 0.40
0.08 0.08 0.07 0.07 0.08 0.11 0.14 0.18 0.22 0.26 0.29 0.35 0.38 0.40 0.47 0.57 0.57 0.61 0.65 0.66 0.66 0.66 0.64 0.59 0.58 0.62 0.66 0.64 0.42 0.32 0.32 0.42 0.53 0.55 0.56 0.55 0.40 0.27 0.23 0.26 0.34 0.32 0.39
0.10 0.09 0.09 0.10 0.12 0.14 0.17 0.21 0.24 0.24 0.27 0.29 0.31 0.34 0.42 0.49 0.50 0.60 0.64 0.68 0.69 0.70 0.71 0.72 0.69 0.69 0.72 0.65 0.53 0.34 0.29 0.40 0.58 0.67 0.71 0.72 0.54 0.35 0.28 0.25 0.26 0.25 0.28
0.08 0.08 0.09 0.11 0.14 0.18 0.23 0.29 0.31 0.32 0.33 0.32 0.32 0.35 0.42 0.56 0.68 0.71 0.67 0.71 0.75 0.73 0.72 0.76 0.78 0.77 0.78 0.71 0.50 0.38 0.29 0.35 0.53 0.69 0.78 0.72 0.60 0.51 0.41 0.34 0.30 0.29 0.28
0.05 0.06 0.08 0.09 0.11 0.13 0.17 0.23 0.28 0.33 0.38 0.39 0.39 0.40 0.45 0.57 0.81 0.93 0.87 0.80 0.79 0.77 0.77 0.75 0.77 0.82 0.88 0.86 0.69 0.52 0.40 0.43 0.56 0.66 0.69 0.69 0.69 0.68 0.63 0.52 0.42 0.35 0.36
0.05 0.06 0.08 0.10 0.11 0.12 0.16 0.21 0.28 0.36 0.40 0.39 0.38 0.38 0.44 0.57 0.79 0.95 0.94 0.79 0.76 0.74 0.74 0.73 0.73 0.71 0.70 0.68 0.60 0.52 0.52 0.59 0.68 0.70 0.77 0.79 0.85 0.89 0.88 0.82 0.74 0.67 0.63
0.06 0.08 0.10 0.13 0.15 0.18 0.24 0.28 0.35 0.43 0.49 0.48 0.44 0.44 0.47 0.56 0.76 0.97 1.03 0.83 0.65 0.63 0.61 0.56 0.54 0.51 0.44 0.40 0.42 0.40 0.40 0.47 0.53 0.55 0.72 0.84 0.94 1.02 1.04 1.05 0.98 0.90 0.83